Weather Roundup
Issued by NWS Chicago, IL

Home | Current Version | Previous Version | Graphics & Text | Print | Product List | Glossary On
Versions: 1 2 3 4 5 6 7 8 9 10 11 12 13 14 15 16 17 18 19 20 21 22 23 24 25 26 27 28 29 30 31 32 33 34 35 36 37 38 39 40 41 42 43 44 45 46 47 48 49 50
861
NZUS59 KLOT 230209
HRRLOT

CHICAGO AREA WEATHER ROUNDUP
NATIONAL WEATHER SERVICE CHICAGO/ROMEOVILLE IL
900 PM CDT SAT JUL 22 2017

NOTE: "FAIR" INDICATES FEW OR NO CLOUDS BELOW 12,000 FEET WITH NO
SIGNIFICANT WEATHER AND/OR OBSTRUCTIONS TO VISIBILITY.

* THESE STATIONS ARE NOT UNDER NWS QUALITY CONTROL. THEY ALSO MAY NOT
  REPORT WEATHER SUCH AS PRECIPITATION OR FOG.

ILZ005-006-012>014-019>023-230300-
NORTHEAST ILLINOIS

CITY           SKY/WX    TMP DP  RH WIND       PRES   REMARKS
OHARE          PTCLDY    79  69  71 E7        29.81R HX  81
MIDWAY         PTCLDY    80  69  69 NE6       29.80S HX  83
AURORA         CLEAR     76  75  97 CALM      29.82R
LANSING*       CLEAR     76  67  73 NE3       29.82R
JOLIET*        MOCLDY    81  76  86 CALM      29.81S HX  87
WAUKEGAN       CLEAR     73  72  96 CALM      29.82R
DUPAGE AIRPORT CLEAR     77  73  87 NE5       29.81R
WHEELING       CLEAR     76  72  87 NE3       29.83R
MORRIS*        MOCLDY    79  74  87 CALM      29.80R HX  82
LEWIS AIRPORT* PTCLDY    78  72  82 W3        29.81S
NORTHERLY ISL    N/A     74  69  85 CALM        N/A
$$

WIZ051-052-058>065-066-070>072-230300-
SOUTHEAST WISCONSIN

CITY           SKY/WX    TMP DP  RH WIND       PRES   REMARKS
MILWAUKEE      MOCLDY    73  68  84 SE6       29.83R
KENOSHA*       CLEAR     73  69  87 SE6       29.83R
RACINE*        MOCLDY    73  70  90 SE5       29.84R
WAUKESHA       PTCLDY    73  66  78 W3        29.83R
WEST BEND      CLEAR     70  68  94 CALM      29.83R
$$

INZ001>003-010>013-019-020-230300-
NORTHWEST INDIANA

CITY           SKY/WX    TMP DP  RH WIND       PRES   REMARKS
GARY*          PTCLDY    77  68  73 E7        29.82R
MICHIGAN CITY* NOT AVBL
RENSSELAER*    NOT AVBL
VALPARAISO     CLEAR     76  72  87 NE5       29.82S
$$

LMZ740>746-230300-
SOUTHERN LAKE MICHIGAN

STATION/POSITION TIME  SKY/WX   TEMP WIND        PRES    VSBY
                                AIR  DIR/SP/G
                 (UTC)          (F)  (DEG/KT/KT) (MB)    (MI)
HARRISON CRIB    0140            75   70/  5/  6   N/A
BURNHAM HARBOR   0200            73                N/A
CALUMET HARBOR   0130            76   50/  3/  5 1009.2R
BURNS HARBOR     0140            76   80/  7/  8 1010.2R
MICHIGAN CITY    0140            75   60/  5/  6   N/A
$$

ABBREVIATIONS USED IN REMARKS
   TC - TEMPERATURE IN CELSIUS
  WCI - WIND CHILL INDEX
   HX - HEAT INDEX
  VSB - VISIBILITY
$$




USA.gov is the U.S. government's official web portal to all federal, state and local government web resources and services.